This demonstration page uses our WeatherBlox Daily Observations layout. Learn more.

Left ArrowRight Arrow

Hourly Observations for July 30, 2022

Temp ( °F °C ) Dew Point ( °F °C ) Humidity (%) Winds ( mph kmh ) Pressure ( in mb ) Visibility ( mi km ) Precip ( " mm )
12:53 am 00:53 Mostly Cloudy 86 30 71 21.7 61 61 ESE 7 11 29.98 1015 10 16 0.00 0.00
1:53 am 01:53 Mostly Cloudy 88 31.1 69 20.6 54 54 S 13 20 29.98 1015 10 16 0.00 0.00
2:53 am 02:53 Clear 87 30.6 70 21.1 57 57 S 14 22 29.98 1015 10 16 0.00 0.00
3:53 am 03:53 Mostly Cloudy 86 30 70 21.1 59 59 S 9 15 29.98 1015 10 16 0.00 0.00
4:53 am 04:53 Mostly Cloudy 85 29.4 71 21.7 63 63 S 8 13 30.00 1016 10 16 0.00 0.00
5:53 am 05:53 Partly Cloudy 84 28.9 71 21.7 65 65 S 9 15 30.00 1016 10 16 0.00 0.00
6:53 am 06:53 Mostly Cloudy 83 28.3 71 21.7 67 67 S 9 15 30.01 1016 10 16 0.00 0.00
7:53 am 07:53 Mostly Cloudy 83 28.3 71 21.7 67 67 S 8 13 30.03 1017 10 16 0.00 0.00
8:53 am 08:53 Mostly Cloudy 85 29.4 71 21.7 63 63 SSW 6 9 30.04 1017 10 16 0.00 0.00
9:53 am 09:53 Mostly Cloudy 88 31.1 71 21.7 57 57 SW 9 15 30.05 1018 10 16 0.00 0.00
10:53 am 10:53 Mostly Cloudy 89 31.7 71 21.7 55 55 WSW 6 9 30.05 1018 10 16 0.00 0.00
11:53 am 11:53 Mostly Cloudy 94 34.4 71 21.7 48 48 WNW 6 9 30.05 1018 10 16 0.00 0.00
12:53 pm 12:53 Mostly Cloudy 97 36.1 69 20.6 40 40 VRB 3 6 30.04 1017 10 16 0.00 0.00
1:53 pm 13:53 Mostly Cloudy 96 35.6 68 20 40 40 VRB 3 6 30.01 1016 10 16 0.00 0.00
2:53 pm 14:53 Mostly Cloudy 99 37.2 67 19.4 35 35 VRB 5 7 29.97 1015 10 16 0.00 0.00
3:53 pm 15:53 Mostly Cloudy 99 37.2 67 19.4 35 35 S 8 13 29.95 1014 10 16 0.00 0.00
4:53 pm 16:53 Mostly Cloudy 99 37.2 66 18.9 34 34 VRB 3 6 29.93 1014 10 16 0.00 0.00
5:53 pm 17:53 Mostly Cloudy with Thunderstorms 99 37.2 66 18.9 34 34 ESE 3 6 29.93 1014 10 16 0.00 0.00
6:22 pm 18:22 Mostly Cloudy with Thunderstorms 93 33.9 67 19.4 42 42 S 9 15 29.94 1014 10 16 0.00 0.00
6:43 pm 18:43 Mostly Cloudy with Thunderstorms 95 35 68 20 41 41 E 8 13 29.93 1014 10 16 0.00 0.00
6:53 pm 18:53 Mostly Cloudy with Thunderstorms 96 35.6 67 19.4 39 39 E 12 19 29.93 1014 10 16 0.00 0.00
7:09 pm 19:09 Mostly Cloudy 93 33.9 68 20 44 44 E 12 19 29.92 1013 10 16 0.00 0.00
7:53 pm 19:53 Mostly Cloudy 90 32.2 68 20 48 48 ENE 7 11 29.94 1014 10 16 0.00 0.00
8:53 pm 20:53 Mostly Cloudy 90 32.2 69 20.6 50 50 E 10 17 29.96 1014 10 16 0.00 0.00
9:53 pm 21:53 Mostly Cloudy 90 32.2 71 21.7 54 54 E 10 17 29.98 1015 10 16 0.00 0.00
10:53 pm 22:53 Mostly Cloudy 89 31.7 71 21.7 55 55 ESE 12 19 29.99 1016 10 16 0.00 0.00
11:53 pm 23:53 Mostly Cloudy 87 30.6 71 21.7 59 59 ESE 13 20 30.00 1016 10 16 0.00 0.00

Powered by AerisWeather